User: anonymous   Login
Location: Godiavel Galaoual
(15.2485°N, 12.6604°W)
Time: 11:04:49
(UTC+00:00)
Language:

LightSail 2 - Orbit

View from above orbital plane
View from above orbital plane
View from above satellite
View from above satellite

Ground track
Ground track

The orbit data is extracted from the following two-line orbital elements,

1 44420U 19036AC  20196.53507189 +.00002685 +00000-0 +55076-3 0  9996
2 44420 024.0064 296.6597 0019840 055.8089 304.4280 14.55874860054270
Epoch (UTC): 14 July 2020 12:50:30
Eccentricity: 0.0019840
inclination: 24.0064°
perigee height: 692 km
apogee height: 720 km
right ascension of ascending node: 296.6597°
argument of perigee: 55.8089°
revolutions per day: 14.55874860
mean anomaly at epoch: 304.4280°
orbit number at epoch: 5427

The dashed part of the orbit path shows where the satellite is in the earth's shadow,  

DLR